Weather Roundup
Issued by NWS Chicago, IL

Home | Current Version | Previous Version | Graphics & Text | Print | Product List | Glossary On
Versions: 1 2 3 4 5 6 7 8 9 10 11 12 13 14 15 16 17 18 19 20 21 22 23 24 25 26 27 28 29 30 31 32 33 34 35 36 37 38 39 40 41 42 43 44 45 46 47 48 49 50
829
NZUS59 KLOT 281704
HRRLOT

CHICAGO AREA WEATHER ROUNDUP
NATIONAL WEATHER SERVICE CHICAGO/ROMEOVILLE IL
1200 PM CDT SUN AUG 28 2016

NOTE: "FAIR" INDICATES FEW OR NO CLOUDS BELOW 12,000 FEET WITH NO
SIGNIFICANT WEATHER AND/OR OBSTRUCTIONS TO VISIBILITY.

* THESE STATIONS ARE NOT UNDER NWS QUALITY CONTROL. THEY ALSO MAY NOT
  REPORT WEATHER SUCH AS PRECIPITATION OR FOG.

ILZ005-006-012>014-019>023-281800-
NORTHEAST ILLINOIS

CITY           SKY/WX    TMP DP  RH WIND       PRES   REMARKS
OHARE          MOSUNNY   81  69  67 NE8       30.21R HX  84
MIDWAY         PTSUNNY   81  70  69 E8        30.20S HX  84
AURORA         MOSUNNY   86  73  65 SE5       30.20S HX  93
LANSING*       MOSUNNY   81  76  85 NE6       30.21S HX  87
JOLIET*        MOSUNNY   86  74  66 CALM      30.19S HX  94
WAUKEGAN       PTSUNNY   74  69  85 NE8       30.22S
DUPAGE AIRPORT MOSUNNY   84  71  65 VRB5      30.20S HX  89
WHEELING       SUNNY     79  66  64 E8        30.22S HX  81
KANKAKEE*      MOSUNNY   82  74  77 SE5       30.20F HX  88
MORRIS*        PTSUNNY   85  75  71 CALM      30.18F HX  93
LEWIS AIRPORT* MOSUNNY   83  76  79 SE5       30.19S HX  91
$$

WIZ051-052-058>065-066-070>072-281800-
SOUTHEAST WISCONSIN

CITY           SKY/WX    TMP DP  RH WIND       PRES   REMARKS
MILWAUKEE      CLOUDY    72  65  78 NE7       30.23S
KENOSHA*       SUNNY     76  68  76 E9        30.23S
RACINE*        CLOUDY    70  65  84 NE6       30.25S
WAUKESHA       MOSUNNY   72  66  83 NE6       30.25S
$$

INZ001>003-010>013-019-020-281800-
NORTHWEST INDIANA

CITY           SKY/WX    TMP DP  RH WIND       PRES   REMARKS
GARY*          PTSUNNY   82  73  74 NE7       30.21S HX  88
MICHIGAN CITY* NOT AVBL
RENSSELAER*    NOT AVBL
VALPARAISO     CLOUDY    83  72  69 N5        30.21S HX  88
$$

LMZ740>746-281800-
SOUTHERN LAKE MICHIGAN

STATION/POSITION TIME  SKY/WX   TEMP WIND        PRES    VSBY
                                AIR  DIR/SP/G
                 (UTC)          (F)  (DEG/KT/KT) (MB)    (MI)
HARRISON CRIB    1600            74   50/  6/  7   N/A
BURNHAM HARBOR   1700            76   30/  4/  7   N/A
CALUMET HARBOR   1600            74   50/  6/  8 1022.6R
BURNS HARBOR     1600            76   60/  9/ 10 1023.4R
MICHIGAN CITY    1600            75   10/  9/ 10   N/A
$$

ABBREVIATIONS USED IN REMARKS
   TC - TEMPERATURE IN CELSIUS
  WCI - WIND CHILL INDEX
   HX - HEAT INDEX
  VSB - VISIBILITY
$$




USA.gov is the U.S. government's official web portal to all federal, state and local government web resources and services.